Regional Weather Roundup
Issued by NWS

Home | Current Version | Previous Version | Graphics & Text | Print | Product List | Glossary On
Versions: 1 2 3 4 5 6 7 8 9 10 11 12 13 14 15 16 17 18 19 20 21 22 23 24 25 26 27 28 29 30 31 32 33 34 35 36 37 38 39 40 41 42 43 44 45 46 47 48 49 50
000
ASUS45 KCYS 232110
RWRWY

WYOMING REGIONAL WEATHER ROUNDUP
NATIONAL WEATHER SERVICE CHEYENNE WY
300 PM MDT SAT MAY 23 2015

NOTE:  "FAIR" INDICATES FEW OR NO CLOUDS BELOW 12,000 FEET
WITH NO SIGNIFICANT WEATHER AND/OR OBSTRUCTIONS TO VISIBILITY.

WYZ001-232200-
YELLOWSTONE NATIONAL PARK

CITY           SKY/WX    TMP DP  RH WIND       PRES   REMARKS
LK YELLOWSTONE   N/A     43  39  86 CALM      30.07R
W YELLOWSTONE  NOT AVBL

$$
WYZ002>013-054>058-071-098>099-232200-
NORTHERN WYOMING

CITY           SKY/WX    TMP DP  RH WIND       PRES   REMARKS
JACKSON        CLOUDY    45  41  87 CALM      30.01S
CODY           CLOUDY    46  43  87 CALM      30.02R
GREYBULL       FAIR      62  48  60 N8        29.93F
WORLAND        FAIR      59  48  67 NW17      29.94S
SHERIDAN       LGT RAIN  53  48  83 N6        30.02R
BUFFALO        LGT RAIN  49  47  93 N10       30.03R FOG
GILLETTE       PTSUNNY   58  45  62 E7        30.01R
HULETT         CLOUDY    54  46  76 E8        30.04S
NEWCASTLE      CLOUDY    59  45  58 SE12      30.01F

$$
WYZ014>020-022>026-101>103-232200-
CENTRAL WYOMING

CITY           SKY/WX    TMP DP  RH WIND       PRES   REMARKS
BIG PINEY      FAIR      53  35  50 VRB3      29.98S
PINEDALE       LGT RAIN  50  37  62 NE10G20   30.00S
DUBOIS         CLOUDY    43  37  81 NW6       30.03S
LANDER         PTSUNNY   58  43  57 N13       29.91F
RIVERTON       FAIR      61  43  51 N8        29.93F
CASPER         FAIR      61  41  47 E16       29.94S
DOUGLAS        FAIR      62  44  51 E6G18     29.96S

$$
WYZ021-027>030-104>119-232200-
SOUTHERN WYOMING

CITY           SKY/WX    TMP DP  RH WIND       PRES   REMARKS
EVANSTON       LGT RAIN  39  37  92 S9        30.00R FOG     WCI  33
KEMMERER       LGT RAIN  43  36  75 S17G25    30.01R
FORT BRIDGER   MOCLDY    50  41  71 S7        30.01S THUNDER
ROCK SPRINGS   PTSUNNY   52  37  56 N6        29.96S
DIXON          MOCLDY    56  34  43 W12       29.99S
RAWLINS        LGT RAIN  46  39  76 S16G22    30.00R
SARATOGA       CLOUDY    43  41  93 W8        30.02R
LARAMIE        FAIR      55  41  59 E10       29.95F
CHEYENNE       CLOUDY    54  43  66 VRB3      29.96F
TORRINGTON     CLOUDY    60  51  72 E15       29.93F
PINE BLUFFS    CLOUDY    55  50  82 E13       29.94F

$$


USA.gov is the U.S. government's official web portal to all federal, state and local government web resources and services.